FW9323 Weather Reports


time (UTC)temp
C
wind
direction
speed
KPH
gust
KPH
rain 1hr
cm
rain 24hr
cm
rain mn
cm
humidity
%
barometer
mb
20260506202127 6 2 6.4 8.0 0.18 1.96 1.96 98 1006.9
20260506201625 6 309 3.2 3.2 0.13 1.93 1.93 98 1007.0
20260506201121 6 323 3.2 3.2 0.13 1.93 1.93 98 1006.7
20260506200617 6 338 1.6 1.6 0.00 1.91 1.91 98 1006.8
20260506200114 6 315 1.6 3.2 0.18 1.91 1.91 98 1006.7
20260506195611 6 347 1.6 1.6 0.18 1.91 1.91 98 1006.8
20260506195107 6 6 1.6 3.2 0.00 1.88 1.88 98 1007.0
20260506194605 6 306 3.2 3.2 0.00 1.88 1.88 98 1006.7
20260506194101 7 301 4.8 4.8 0.00 1.88 1.88 98 1006.6
20260506193559 7 301 3.2 3.2 0.00 1.88 1.88 98 1006.5
20260506193056 7 344 3.2 3.2 0.00 1.88 1.88 98 1006.7
20260506192553 6 353 4.8 4.8 0.00 1.88 1.88 98 1006.6
20260506192049 6 321 1.6 1.6 0.00 1.88 1.88 98 1006.4
20260506191545 7 322 1.6 1.6 0.13 1.88 1.88 98 1006.4
20260506191041 7 8 3.2 3.2 0.13 1.88 1.88 98 1006.6
20260506190539 6 346 3.2 3.2 0.00 1.85 1.85 98 1006.2
20260506190036 6 322 1.6 3.2 0.00 1.85 1.85 98 1006.3
20260506185533 6 336 1.6 3.2 0.00 1.85 1.85 98 1006.7
20260506185029 6 342 1.6 1.6 0.18 1.85 1.85 98 1006.7
20260506184527 6 322 3.2 3.2 0.18 1.85 1.85 98 1006.8
20260506184024 6 20 1.6 1.6 0.00 1.83 1.83 98 1006.4
20260506183520 6 331 1.6 1.6 0.00 1.83 1.83 98 1006.8
20260506183017 6 332 3.2 3.2 0.00 1.83 1.83 98 1006.9
20260506182514 6 307 1.6 1.6 0.00 1.83 1.83 98 1007.1
20260506182011 6 317 1.6 3.2 0.13 1.83 1.83 98 1007.1
20260506181509 6 318 0.0 1.6 0.13 1.83 1.83 98 1007.1
20260506181006 6 319 1.6 1.6 0.00 1.80 1.80 98 1007.3
20260506180502 6 357 4.8 4.8 0.18 1.80 1.80 98 1007.4
20260506175959 6 326 0.0 1.6 0.18 1.80 1.80 98 1007.2
20260506175455 6 10 4.8 4.8 0.18 1.78 1.78 98 1007.3
20260506174952 6 329 1.6 1.6 0.18 1.78 1.78 98 1007.4
20260506174450 6 346 3.2 4.8 0.00 1.75 1.75 98 1007.3
20260506173946 6 343 3.2 3.2 0.00 1.75 1.75 98 1007.4
20260506173444 6 345 6.4 8.0 0.00 1.75 1.75 98 1007.6
20260506172940 6 321 0.0 1.6 0.13 1.75 1.75 98 1007.4
20260506172438 6 14 1.6 3.2 0.30 1.75 1.75 98 1007.6
20260506171934 6 313 1.6 1.6 0.30 1.73 1.73 98 1007.5
20260506171432 6 356 1.6 3.2 0.13 1.70 1.70 98 1007.4
20260506170929 6 330 1.6 1.6 0.00 1.68 1.68 98 1007.3
20260506170425 6 26 6.4 8.0 0.18 1.68 1.68 98 1007.2
20260506165919 6 9 4.8 8.0 0.18 1.68 1.68 98 1007.3
20260506165417 6 319 1.6 3.2 0.00 1.65 1.65 98 1007.6
20260506164912 6 17 4.8 8.0 0.13 1.65 1.65 98 1007.6
20260506164409 6 353 6.4 8.0 0.13 1.65 1.65 98 1007.6
20260506163908 6 329 3.2 3.2 0.18 1.63 1.63 98 1007.6
20260506163401 6 325 4.8 8.0 0.30 1.63 1.63 98 1007.7
20260506162856 6 319 3.2 3.2 0.13 1.60 1.60 98 1007.7
20260506162355 6 332 1.6 3.2 0.18 1.57 1.57 98 1007.6
20260506161852 6 307 3.2 3.2 0.30 1.57 1.57 98 1007.8
20260506161350 6 327 1.6 1.6 0.43 1.55 1.55 98 1008.0
20260506160847 6 311 1.6 1.6 0.48 1.52 1.52 98 1008.1
20260506160344 6 4 4.8 4.8 0.48 1.50 1.50 98 1008.1
20260506155842 6 337 1.6 1.6 0.48 1.45 1.45 98 1007.9
20260506155338 6 321 3.2 3.2 0.43 1.42 1.42 98 1008.0
20260506153456 6 298 3.2 3.2 0.43 1.27 1.27 98 1008.1
20260506152954 6 291 3.2 3.2 0.48 1.24 1.24 98 1008.2
20260506152450 6 325 3.2 3.2 0.36 1.19 1.19 98 1008.2
20260506151949 6 298 1.6 1.6 0.30 1.17 1.17 97 1008.4
20260506151446 6 307 3.2 3.2 0.13 1.14 1.14 97 1007.8
20260506150943 6 292 4.8 8.0 0.18 1.12 1.12 97 1008.1
20260506150439 6 319 4.8 8.0 0.30 1.12 1.12 97 1007.9
20260506145936 6 352 4.8 4.8 0.30 1.09 1.09 97 1007.8
20260506145432 6 317 4.8 8.0 0.30 1.07 1.07 97 1007.9
20260506144930 6 345 3.2 4.8 0.13 1.04 1.04 97 1007.8
20260506144427 6 317 1.6 1.6 0.18 1.02 1.02 97 1007.9
20260506143925 6 4 4.8 4.8 0.30 1.02 1.02 97 1007.9
20260506143422 6 348 3.2 4.8 0.13 0.99 0.99 97 1007.7
20260506142920 6 0 3.2 4.8 0.18 0.97 0.97 97 1007.9
20260506142418 6 3 3.2 3.2 0.18 0.97 0.97 96 1007.9
20260506141916 6 319 3.2 4.8 0.13 0.94 0.94 96 1008.0
20260506141413 6 25 3.2 3.2 0.13 0.94 0.94 96 1008.1
20260506140911 6 3 1.6 3.2 0.18 0.91 0.91 96 1008.2
20260506140408 6 343 3.2 3.2 0.30 0.91 0.91 96 1008.1
20260506135905 6 327 4.8 4.8 0.13 0.89 0.89 96 1008.0
20260506135402 6 352 3.2 3.2 0.18 0.86 0.86 96 1007.9
20260506134858 6 322 8.0 9.7 0.18 0.86 0.86 96 1007.9
20260506134354 6 351 0.0 1.6 0.00 0.84 0.84 97 1007.6
20260506133851 6 339 0.0 1.6 0.00 0.84 0.84 97 1008.1
20260506133348 6 350 3.2 4.8 0.00 0.84 0.84 97 1007.8
20260506132844 6 311 3.2 3.2 0.00 0.84 0.84 97 1007.9
20260506132342 6 313 1.6 3.2 0.00 0.84 0.84 97 1008.0
20260506131840 6 353 4.8 4.8 0.00 0.84 0.84 96 1008.2
20260506131336 6 352 8.0 11.3 0.00 0.84 0.84 96 1008.4
20260506130834 6 296 4.8 8.0 0.18 0.84 0.84 96 1008.3
20260506130330 6 315 1.6 1.6 0.18 0.84 0.84 96 1008.4
20260506125828 6 320 4.8 8.0 0.00 0.81 0.81 96 1008.5
20260506125326 6 335 4.8 8.0 0.13 0.81 0.81 96 1008.4
20260506124824 6 346 4.8 4.8 0.13 0.81 0.81 96 1008.5
20260506124320 6 324 4.8 8.0 0.18 0.79 0.79 96 1008.4
20260506123818 6 312 6.4 11.3 0.30 0.79 0.79 96 1008.5
20260506123317 6 356 4.8 4.8 0.13 0.76 0.76 96 1008.5
20260506122813 6 323 1.6 3.2 0.18 0.74 0.74 96 1008.2
20260506122310 6 298 3.2 4.8 0.30 0.74 0.74 96 1008.4
20260506121808 7 352 6.4 8.0 0.30 0.71 0.71 97 1008.4
20260506121305 7 329 1.6 1.6 0.30 0.69 0.69 97 1008.7
20260506120802 7 18 4.8 4.8 0.13 0.66 0.66 97 1009.0
20260506120300 7 347 1.6 3.2 0.18 0.64 0.64 97 1008.8
20260506115757 7 306 3.2 3.2 0.30 0.64 0.64 97 1008.9
20260506115255 7 337 0.0 1.6 0.13 0.61 0.61 97 1008.8
20260506114753 7 12 1.6 1.6 0.18 0.58 0.58 97 1008.9
20260506114251 7 326 1.6 1.6 0.18 0.58 0.58 97 1009.0
20260506113749 7 315 1.6 1.6 0.13 0.56 0.56 97 1008.9
20260506113246 7 326 0.0 0.0 0.30 0.56 0.56 97 1009.1
20260506112742 7 337 1.6 3.2 0.36 0.53 0.53 97 1009.0
20260506112240 7 313 0.0 0.0 0.30 0.51 0.51 97 1009.0
20260506111737 7 308 1.6 3.2 0.13 0.48 0.48 97 1008.6
20260506111235 7 303 1.6 1.6 0.00 0.46 0.46 97 1008.3
20260506110732 7 304 1.6 1.6 0.00 0.46 0.46 97 1008.1
20260506110230 7 356 1.6 3.2 0.00 0.46 0.46 97 1008.2
20260506105726 7 14 3.2 3.2 0.00 0.46 0.46 97 1008.2
20260506105223 7 14 4.8 4.8 0.00 0.46 0.46 97 1008.2
20260506104721 8 9 1.6 3.2 0.00 0.46 0.46 97 1008.1
20260506104218 8 4 1.6 3.2 0.00 0.46 0.46 96 1008.1
20260506103715 8 332 1.6 1.6 0.00 0.46 0.46 96 1008.4
20260506103212 8 319 1.6 3.2 0.00 0.46 0.46 96 1008.1
20260506102710 8 322 1.6 1.6 0.00 0.46 0.46 97 1008.3
20260506102208 8 333 3.2 3.2 0.00 0.46 0.46 97 1008.2
20260506101704 8 1 1.6 3.2 0.00 0.46 0.46 97 1008.2
20260506101201 8 343 1.6 1.6 0.18 0.46 0.46 97 1008.4
20260506100659 8 315 1.6 1.6 0.18 0.46 0.46 97 1008.4
20260506100157 8 321 1.6 1.6 0.00 0.43 0.43 96 1008.2
20260506095655 8 318 1.6 1.6 0.13 0.43 0.43 96 1008.5
20260506095152 8 313 3.2 3.2 0.30 0.43 0.43 96 1007.9
20260506094649 8 48 3.2 3.2 0.30 0.41 0.41 96 1008.1
20260506094147 8 302 0.0 0.0 0.13 0.38 0.38 96 1008.7
20260506093645 8 338 1.6 1.6 0.00 0.36 0.36 95 1008.2
20260506093142 8 320 1.6 1.6 0.18 0.36 0.36 95 1008.5
20260506092640 8 327 0.0 0.0 0.18 0.36 0.36 94 1008.4
20260506092137 8 8 1.6 1.6 0.00 0.33 0.33 94 1008.3
20260506091635 8 337 1.6 3.2 0.00 0.33 0.33 95 1008.7
20260506091132 8 7 0.0 1.6 0.13 0.33 0.33 95 1008.4
20260506090630 9 317 0.0 0.0 0.13 0.33 0.33 94 1008.8
20260506090126 9 313 1.6 1.6 0.00 0.30 0.30 94 1008.8
20260506085623 9 344 0.0 0.0 0.00 0.30 0.30 93 1008.4
20260506085119 8 319 0.0 1.6 0.00 0.30 0.30 94 1008.9
20260506084616 9 21 4.8 8.0 0.00 0.30 0.30 95 1008.2
20260506084112 9 350 3.2 3.2 0.00 0.30 0.30 96 1008.5
20260506083610 9 10 1.6 1.6 0.00 0.30 0.30 96 1008.5
20260506083107 10 11 3.2 3.2 0.18 0.30 0.30 96 1008.4
20260506082603 10 39 1.6 1.6 0.18 0.30 0.30 95 1008.4
20260506082059 10 344 0.0 1.6 0.00 0.28 0.28 95 1008.5
20260506081558 10 342 0.0 1.6 0.00 0.28 0.28 95 1008.7
20260506081055 9 345 1.6 1.6 0.00 0.28 0.28 94 1008.5
20260506080552 9 338 0.0 1.6 0.13 0.28 0.28 94 1008.6
20260506073033 10 31 3.2 3.2 0.00 0.20 0.20 96 1008.2
20260506072530 10 352 1.6 1.6 0.00 0.20 0.20 96 1008.6
20260506072028 10 351 1.6 1.6 0.00 0.20 0.20 96 1008.6
20260506071525 10 327 0.0 0.0 0.18 0.20 0.20 96 1008.5
20260506071022 10 336 0.0 0.0 0.18 0.20 0.20 96 1008.4
20260506070520 10 37 3.2 3.2 0.00 0.18 0.18 96 1008.0
20260506062457 10 12 4.8 8.0 0.00 0.15 0.15 97 1008.0
20260506061953 10 31 4.8 4.8 0.00 0.15 0.15 97 1008.1
20260506061449 11 37 4.8 4.8 0.00 0.15 0.15 98 1008.1
20260506060947 11 36 4.8 4.8 0.13 0.15 0.15 98 1008.5
20260506060446 11 86 1.6 1.6 0.13 0.15 0.15 98 1008.5
20260506050914 11 23 4.8 4.8 0.00 0.10 0.10 98 1008.5
20260506050412 11 320 1.6 3.2 0.13 0.10 0.10 98 1008.4
20260506044902 11 312 1.6 1.6 0.00 0.08 0.08 98 1008.4
20260506044400 11 324 0.0 0.0 0.00 0.08 0.08 98 1007.9
20260506043857 11 319 0.0 1.6 0.18 0.08 0.08 98 1007.8
20260506043354 11 339 0.0 1.6 0.18 0.08 0.08 98 1007.7
20260506042852 11 326 0.0 0.0 0.00 0.05 0.05 98 1007.8
20260506042351 11 335 0.0 0.0 0.00 0.05 0.05 97 1007.5
20260506041849 11 45 4.8 4.8 0.13 0.05 0.05 97 1007.4
20260506041346 11 115 3.2 3.2 0.13 0.05 0.05 97 1007.8
20260506040843 11 26 1.6 1.6 0.18 0.03 0.03 97 1008.2
20260506040341 11 333 0.0 0.0 0.18 0.03 0.03 97 1008.2
20260506035837 11 330 0.0 0.0 0.00 0.74 0.74 97 1008.1
20260506035334 11 339 0.0 0.0 0.13 0.74 0.74 97 1007.8
20260506034831 11 325 0.0 0.0 0.13 0.74 0.74 97 1007.8
20260506034328 11 342 1.6 1.6 0.00 0.71 0.71 97 1007.8
20260506033825 11 273 1.6 1.6 0.00 0.71 0.71 96 1007.8
20260506033322 11 242 1.6 1.6 0.00 0.71 0.71 95 1007.5
20260506032819 11 24 1.6 1.6 0.00 0.71 0.71 94 1007.5
20260506032316 12 338 0.0 0.0 0.18 0.71 0.71 92 1007.5
20260506031813 12 342 0.0 1.6 0.30 0.71 0.71 89 1007.4
20260506031310 12 307 0.0 0.0 0.13 0.69 0.69 87 1007.5
20260506030808 13 306 1.6 1.6 0.36 0.66 0.66 84 1007.3
20260506030306 13 296 1.6 1.6 0.18 0.64 0.64 79 1007.1
20260506025802 14 305 3.2 3.2 0.00 0.61 0.61 76 1007.4
20260506025259 14 289 6.4 8.0 0.00 0.61 0.61 75 1006.9
20260506024756 14 284 4.8 8.0 0.00 0.61 0.61 74 1006.9
20260506024252 15 306 3.2 3.2 0.00 0.61 0.61 74 1006.8
20260506023748 15 306 4.8 4.8 0.00 0.61 0.61 75 1006.7
20260506023246 15 299 6.4 11.3 0.00 0.61 0.61 74 1006.6
20260506022742 15 278 4.8 4.8 0.00 0.61 0.61 75 1006.7
20260506022240 15 300 8.0 11.3 0.00 0.61 0.61 76 1006.5
20260506021738 15 298 3.2 3.2 0.00 0.61 0.61 78 1006.7
20260506021235 15 313 3.2 3.2 0.00 0.61 0.61 78 1006.7
20260506020731 15 312 1.6 1.6 0.13 0.61 0.61 81 1006.4
20260506020229 15 334 8.0 11.3 0.13 0.61 0.61 78 1006.7
20260506015727 15 302 6.4 8.0 0.00 0.58 0.58 81 1006.5
20260506015224 14 327 11.3 17.7 0.00 0.58 0.58 91 1006.5
20260506014721 15 322 3.2 3.2 0.00 0.58 0.58 96 1006.6
20260506014217 15 346 3.2 3.2 0.00 0.58 0.58 95 1006.3
20260506013715 15 309 0.0 1.6 0.00 0.58 0.58 95 1006.0
20260506013212 15 311 0.0 0.0 0.00 0.58 0.58 95 1005.8
20260506012708 15 313 1.6 1.6 0.00 0.58 0.58 94 1005.6
20260506012205 15 319 0.0 0.0 0.00 0.58 0.58 93 1005.5
20260506011702 15 317 1.6 1.6 0.00 0.58 0.58 92 1005.5
20260506011158 15 322 0.0 0.0 0.00 0.58 0.58 90 1005.3
20260506010657 15 277 0.0 1.6 0.00 0.58 0.58 90 1005.1
20260506010154 15 322 0.0 0.0 0.00 0.58 0.58 90 1005.0
20260506005651 15 296 1.6 1.6 0.00 0.58 0.58 90 1004.9
20260506005147 15 308 1.6 1.6 0.00 0.58 0.58 91 1004.9
20260506004643 15 297 1.6 1.6 0.00 0.58 0.58 92 1005.0
20260506004141 15 301 0.0 0.0 0.00 0.58 0.58 93 1005.0
20260506003637 15 209 3.2 3.2 0.00 0.58 0.58 95 1005.0
20260506003134 15 315 0.0 0.0 0.00 0.58 0.58 95 1004.8
20260506002630 15 305 0.0 0.0 0.00 0.58 0.58 95 1004.6
20260506002126 15 317 0.0 0.0 0.00 0.58 0.58 95 1004.3
20260506001621 15 333 0.0 0.0 0.00 0.58 0.58 95 1004.1
20260506001119 15 319 0.0 0.0 0.00 0.58 0.58 94 1004.3
20260506000616 15 317 0.0 0.0 0.00 0.58 0.58 94 1004.4
20260506000113 15 325 0.0 0.0 0.00 0.58 0.58 93 1004.4
20260505235612 15 325 0.0 0.0 0.00 0.58 0.58 93 1004.3
20260505235108 15 325 0.0 0.0 0.00 0.58 0.58 93 1004.4
20260505234605 16 313 0.0 0.0 0.00 0.58 0.58 92 1004.3
20260505234102 16 86 1.6 1.6 0.00 0.58 0.58 92 1004.5
20260505233600 16 128 1.6 3.2 0.00 0.58 0.58 92 1004.2
20260505233057 16 28 1.6 1.6 0.00 0.58 0.58 91 1004.3
20260505232555 16 6 1.6 1.6 0.00 0.58 0.58 90 1004.2
20260505232052 16 310 1.6 1.6 0.00 0.58 0.58 90 1004.2
20260505231548 16 312 0.0 0.0 0.00 0.58 0.58 90 1004.2
20260505231047 16 313 0.0 0.0 0.00 0.58 0.58 89 1004.0
20260505230544 16 313 1.6 1.6 0.00 0.58 0.58 89 1003.7
20260505230041 17 259 1.6 1.6 0.00 0.58 0.58 89 1003.7
20260505225538 17 69 0.0 1.6 0.00 0.58 0.58 88 1003.7
20260505225034 17 226 1.6 1.6 0.00 0.58 0.58 87 1003.8
20260505224531 17 297 1.6 1.6 0.00 0.58 0.58 88 1003.7
20260505224028 17 306 0.0 0.0 0.00 0.58 0.58 88 1003.9
20260505223525 17 313 0.0 1.6 0.00 0.58 0.58 89 1003.8
20260505223021 17 289 1.6 1.6 0.00 0.58 0.58 90 1003.8
20260505222518 17 109 4.8 4.8 0.00 0.58 0.58 91 1003.8
20260505222013 17 312 0.0 0.0 0.00 0.58 0.58 89 1004.0
20260505221511 17 307 0.0 0.0 0.00 0.58 0.58 89 1003.9
20260505221008 17 268 0.0 1.6 0.00 0.58 0.58 89 1003.6
20260505220505 17 162 3.2 3.2 0.00 0.58 0.58 88 1003.8
20260505220002 17 308 1.6 1.6 0.00 0.58 0.58 88 1003.8
20260505215500 17 310 0.0 0.0 0.00 0.58 0.58 87 1003.7
20260505214958 17 313 0.0 0.0 0.00 0.58 0.58 88 1003.8
20260505214456 17 289 1.6 3.2 0.00 0.58 0.58 86 1003.9
20260505213952 17 315 0.0 0.0 0.00 0.58 0.58 88 1003.6
20260505213450 17 332 1.6 3.2 0.00 0.58 0.58 89 1003.5
20260505212946 16 294 0.0 1.6 0.00 0.58 0.58 89 1003.3
20260505212443 16 336 1.6 1.6 0.00 0.58 0.58 90 1003.6
20260505211939 16 135 1.6 3.2 0.00 0.58 0.58 91 1003.5
20260505211437 16 71 3.2 3.2 0.00 0.58 0.58 91 1003.5
20260505210933 16 291 1.6 3.2 0.00 0.58 0.58 91 1003.2
20260505210431 16 130 3.2 3.2 0.00 0.58 0.58 90 1003.2
20260505205927 17 295 1.6 3.2 0.00 0.58 0.58 90 1003.0
20260505205426 17 359 1.6 1.6 0.00 0.58 0.58 89 1002.9
20260505204922 17 290 0.0 1.6 0.00 0.58 0.58 86 1002.7
20260505204420 17 170 3.2 3.2 0.00 0.58 0.58 88 1002.5
20260505203917 17 172 4.8 4.8 0.00 0.58 0.58 89 1002.6
20260505203413 17 262 1.6 1.6 0.00 0.58 0.58 90 1002.7
20260505202910 16 306 1.6 3.2 0.00 0.58 0.58 90 1002.7